Location: Peebles
(55.6412°N, 3.1714°W)
Time: 21:24:35
(UTC+00:00)

deb Agena D - Pass Details

Date: 27 September 2023
Orbit: 794 x 979 km, 99.8° (Epoch: 28 November)

Event Time Altitude Azimuth Distance (km) Brightness Sun altitude
Rises 02:45:52 0° 17° (NNE) 3,697 10.6 -32.0°
Reaches altitude 10° 02:48:31 10° 9° (N) 2,744 9.6 -31.9°
Enters shadow 02:53:47 38° 312° (NW) 1,451 7.4 -31.5°
